Location: L'Union
(43.6635°N, 1.4699°E)
Time: 23:07:07
(UTC+02:00)

Tiangong - Visible Passes

Search period start: 01 August 2021 00:00
Search period end: 11 August 2021 00:00
Orbit: 373 x 386 km, 41.5° (Epoch: 01 August)

Date Brightness Start Highest point End Pass type
(mag) Time Alt. Az. Time Alt. Az. Time Alt. Az.
08 Aug 3.6 05:18:48 10° SSE 05:19:31 11° SSE 05:20:25 10° SE visible
09 Aug 2.6 05:52:22 14° SSW 05:54:24 25° SSE 05:57:04 10° E visible
10 Aug 3.3 04:53:47 16° SE 04:53:47 16° SE 04:55:17 10° ESE visible
